EW7158 Bellingham WA US current weather conditions

sailwx.info

Wind from 090

Air temperature 23.9° C
Dewpoint 16.4° C

Last reported at 2020-Aug-15 20:03 UTC.
Time now 2020-Aug-15 20:18 UTC

Location: N 48°42' W 122°19'.
View on Google Maps.

See reports from other nearby stations

  
Tides and Currents Weather Stations Pressure Air Temp Water Temp Dewpoint Dewpoint Depression Visibility Wind Speed Wind Dir Waves Ship Positions
date/time (UTC)wind fromknots sea level pressurealtimeterstation pressurevisibilityair tempwater tempwave heightnotes
2020-Aug-15 20:03 090 23.9
2020-Aug-15 19:53 337 23.3
2020-Aug-15 19:43 090 22.8
2020-Aug-15 19:34 090 22.8
2020-Aug-15 19:25 090 22.2
2020-Aug-15 19:14 090 22.2
2020-Aug-15 19:05 090 21.7
2020-Aug-15 18:55 270 21.1
2020-Aug-15 18:46 270 21.1
2020-Aug-15 18:37 360 21.1
2020-Aug-15 18:27 090 21.1
2020-Aug-15 18:18 090 21.1
2020-Aug-15 18:07 022 20.6
2020-Aug-15 17:58 022 20.0
2020-Aug-15 17:47 270 20.0
2020-Aug-15 17:38 270 20.0
2020-Aug-15 17:28 067 20.0
2020-Aug-15 17:18 067 19.4
2020-Aug-15 17:09 067 19.4
2020-Aug-15 16:59 067 19.4
2020-Aug-15 16:49 067 18.9
2020-Aug-15 16:39 067 18.9
2020-Aug-15 16:30 067 17.8
2020-Aug-15 16:20 067 17.2
2020-Aug-15 16:10 067 16.7
2020-Aug-15 16:01 067 16.7
2020-Aug-15 15:51 067 16.1
2020-Aug-15 15:41 067 16.1
2020-Aug-15 15:32 067 15.6
2020-Aug-15 15:23 067 15.6
2020-Aug-15 15:14 067 15.6
2020-Aug-15 15:03 067 15.0
2020-Aug-15 14:54 067 15.0
2020-Aug-15 14:45 067 15.0
2020-Aug-15 14:35 067 14.4
2020-Aug-15 14:26 067 14.4
2020-Aug-15 14:16 067 13.9
2020-Aug-15 14:07 067 13.9
2020-Aug-15 13:56 067 13.9
2020-Aug-15 13:46 067 13.9
2020-Aug-15 13:37 067 14.4
2020-Aug-15 13:27 067 14.4
2020-Aug-15 13:18 067 14.4
2020-Aug-15 13:09 067 14.4
2020-Aug-15 12:59 067 14.4
2020-Aug-15 12:50 067 14.4
2020-Aug-15 12:40 067 14.4
2020-Aug-15 12:30 067 14.4
2020-Aug-15 12:21 067 14.4
2020-Aug-15 12:11 067 14.4
2020-Aug-15 12:02 067 14.4
2020-Aug-15 11:51 067 14.4
2020-Aug-15 11:42 067 14.4
2020-Aug-15 11:33 067 14.4
2020-Aug-15 11:23 067 14.4
2020-Aug-15 11:13 067 14.4
2020-Aug-15 11:04 067 15.0
2020-Aug-15 10:53 067 15.0
2020-Aug-15 10:44 067 15.0
2020-Aug-15 10:35 067 15.0
2020-Aug-15 10:24 067 15.0
2020-Aug-15 10:15 067 15.0
2020-Aug-15 10:06 067 15.0
2020-Aug-15 09:56 067 15.0
2020-Aug-15 09:47 067 15.0
2020-Aug-15 09:37 067 15.0
2020-Aug-15 09:27 067 15.0
2020-Aug-15 09:18 067 15.0
2020-Aug-15 09:08 067 15.0
2020-Aug-15 08:59 067 15.0
2020-Aug-15 08:50 067 15.0
2020-Aug-15 08:40 067 15.0
2020-Aug-15 08:31 067 15.6
2020-Aug-15 08:21 067 15.6
2020-Aug-15 08:12 067 15.6
2020-Aug-15 08:03 067 15.6
2020-Aug-15 07:53 067 15.6
2020-Aug-15 07:44 067 15.6
2020-Aug-15 07:34 067 16.1
2020-Aug-15 07:24 067 16.1
2020-Aug-15 07:15 067 16.1
2020-Aug-15 07:04 067 16.1
2020-Aug-15 06:55 067 16.1
2020-Aug-15 06:45 067 16.1
2020-Aug-15 06:36 067 16.1
2020-Aug-15 06:26 067 16.7
2020-Aug-15 06:17 067 16.7
2020-Aug-15 06:08 067 16.7
2020-Aug-15 05:58 067 16.7
2020-Aug-15 05:48 067 16.7
2020-Aug-15 05:38 067 16.7
2020-Aug-15 05:29 067 16.7
2020-Aug-15 05:20 067 16.7
2020-Aug-15 05:11 067 17.2
2020-Aug-15 05:01 067 0 17.8
2020-Aug-15 04:51 067 17.8
2020-Aug-15 04:41 067 17.8
2020-Aug-15 04:31 067 18.3
2020-Aug-15 04:22 067 0 17.8
2020-Aug-15 04:13 067 0 18.3
2020-Aug-15 04:03 067 0 18.3
2020-Aug-15 03:53 067 0 18.3
2020-Aug-15 03:44 067 0 18.3
2020-Aug-15 03:35 067 0 18.3
2020-Aug-15 03:26 067 18.9
2020-Aug-15 03:17 067 18.9
2020-Aug-15 03:08 067 0 18.9
2020-Aug-15 02:58 067 0 18.9
2020-Aug-15 02:49 067 0 18.9
2020-Aug-15 02:40 067 0 19.4
2020-Aug-15 02:30 067 0 19.4
2020-Aug-15 02:20 067 0 19.4
2020-Aug-15 02:11 067 1 19.4
2020-Aug-15 02:02 067 0 20.0
2020-Aug-15 01:52 067 0 20.0
2020-Aug-15 01:43 067 0 20.0
2020-Aug-15 01:33 067 0 20.6
2020-Aug-15 01:23 067 0 21.1
2020-Aug-15 01:13 067 0 21.1
2020-Aug-15 01:04 067 0 21.1
2020-Aug-15 00:55 067 21.1
2020-Aug-15 00:45 090 21.7
2020-Aug-15 00:35 090 21.7
2020-Aug-15 00:25 090 0 21.7
2020-Aug-15 00:15 090 21.7
2020-Aug-15 00:06 075 0 22.2
2020-Aug-14 23:56 270 22.2
2020-Aug-14 23:46 270 0 21.7
2020-Aug-14 23:36 270 21.7
2020-Aug-14 23:27 270 0 21.7
2020-Aug-14 23:17 318 21.7
2020-Aug-14 23:08 270 0 22.2
2020-Aug-14 22:58 270 22.2
2020-Aug-14 22:49 270 22.2
2020-Aug-14 22:39 270 0 22.2
2020-Aug-14 22:29 270 0 22.2
2020-Aug-14 22:19 030 0 22.8
2020-Aug-14 22:10 090 0 22.8
2020-Aug-14 22:00 090 0 22.8
2020-Aug-14 21:51 090 22.8
2020-Aug-14 21:41 031 22.8
2020-Aug-14 21:32 050 0 22.2
2020-Aug-14 21:22 270 0 22.8
2020-Aug-14 21:12 090 0 22.2
2020-Aug-14 21:02 090 0 22.2
2020-Aug-14 20:53 090 21.7
2020-Aug-14 20:43 090 0 21.7
2020-Aug-14 20:34 090 21.1
2020-Aug-14 20:24 090 21.1
2020-Aug-14 20:14 090 20.6
2020-Aug-14 20:05 090 0 20.0
2020-Aug-14 19:56 090 20.0
2020-Aug-14 19:46 062 0 19.4
2020-Aug-14 19:36 270 19.4
2020-Aug-14 19:27 270 18.9
2020-Aug-14 19:17 270 18.9
2020-Aug-14 19:08 022 18.9
2020-Aug-14 18:59 022 18.9
2020-Aug-14 18:49 022 18.9
2020-Aug-14 18:40 090 18.3
2020-Aug-14 18:31 090 18.3
2020-Aug-14 18:21 270 18.3
2020-Aug-14 18:11 270 17.8
2020-Aug-14 18:01 270 17.2
2020-Aug-14 17:52 270 1 17.2
2020-Aug-14 17:42 090 17.2
2020-Aug-14 17:33 090 16.7
2020-Aug-14 17:23 090 16.7
2020-Aug-14 17:13 090 16.1
2020-Aug-14 17:04 090 16.1
2020-Aug-14 16:55 090 16.1
2020-Aug-14 16:45 090 15.6
2020-Aug-14 16:36 090 15.6
2020-Aug-14 16:26 090 15.0
2020-Aug-14 16:17 090 14.4
2020-Aug-14 16:07 090 14.4
2020-Aug-14 15:57 090 13.9
2020-Aug-14 15:48 090 13.9
2020-Aug-14 15:38 090 13.9
2020-Aug-14 15:28 090 13.3
2020-Aug-14 15:18 090 13.3
2020-Aug-14 15:08 090 12.8
2020-Aug-14 14:59 090 12.8
2020-Aug-14 14:50 090 12.2
2020-Aug-14 14:40 090 12.2
2020-Aug-14 14:31 090 12.2
2020-Aug-14 14:22 090 11.7
2020-Aug-14 14:13 090 11.7
2020-Aug-14 14:04 090 11.7
2020-Aug-14 13:55 090 11.7
2020-Aug-14 13:45 090 11.7
2020-Aug-14 13:35 090 11.7
2020-Aug-14 13:26 090 11.7
2020-Aug-14 13:16 090 11.7
2020-Aug-14 13:07 090 11.7
2020-Aug-14 12:57 090 12.2
2020-Aug-14 12:47 090 0 11.7
2020-Aug-14 12:37 090 11.7
2020-Aug-14 12:27 090 11.7
2020-Aug-14 12:18 090 11.7
2020-Aug-14 12:08 090 0 11.7
2020-Aug-14 11:58 090 0 11.7
2020-Aug-14 11:49 090 11.7
2020-Aug-14 11:39 090 0 12.2
2020-Aug-14 11:30 090 0 12.2
2020-Aug-14 11:20 090 0 12.2
2020-Aug-14 11:11 090 0 12.2
2020-Aug-14 11:01 090 0 12.2
2020-Aug-14 10:51 090 0 11.7
2020-Aug-14 10:41 090 0 11.7
2020-Aug-14 10:21 090 0 12.2
2020-Aug-14 10:12 090 0 12.2
2020-Aug-14 10:03 090 0 12.2
2020-Aug-14 09:44 090 0 12.2
2020-Aug-14 09:35 090 12.2
2020-Aug-14 09:25 090 12.2
2020-Aug-14 09:15 090 12.2
2020-Aug-14 09:05 090 12.8
2020-Aug-14 08:55 090 12.8
2020-Aug-14 08:45 090 12.8
2020-Aug-14 08:36 090 12.8
2020-Aug-14 08:26 090 0 13.3
2020-Aug-14 08:17 090 0 13.3
2020-Aug-14 08:08 090 0 13.9
2020-Aug-14 07:58 090 0 13.9
2020-Aug-14 07:49 090 0 13.9
2020-Aug-14 07:40 315 13.9
2020-Aug-14 07:31 315 13.9
2020-Aug-14 07:21 315 13.9
2020-Aug-14 07:11 315 13.9
2020-Aug-14 07:01 315 13.9
2020-Aug-14 06:52 315 13.9
2020-Aug-14 06:42 315 13.9
2020-Aug-14 06:32 315 13.9
2020-Aug-14 06:23 315 14.4
2020-Aug-14 06:13 315 14.4
2020-Aug-14 06:03 315 14.4
2020-Aug-14 05:53 315 13.9
2020-Aug-14 05:44 315 13.9
2020-Aug-14 05:34 315 13.9
2020-Aug-14 05:24 315 13.9
2020-Aug-14 05:14 315 14.4
2020-Aug-14 05:04 315 14.4
2020-Aug-14 04:55 315 14.4
2020-Aug-14 04:46 315 14.4
2020-Aug-14 04:37 315 14.4
2020-Aug-14 04:28 315 14.4
2020-Aug-14 04:18 315 14.4
2020-Aug-14 04:08 315 15.0
2020-Aug-14 03:59 315 15.0
2020-Aug-14 03:49 315 15.6
2020-Aug-14 03:39 315 15.6
2020-Aug-14 03:30 315 15.6
2020-Aug-14 03:21 315 16.1
2020-Aug-14 03:11 315 16.1
2020-Aug-14 03:02 315 16.1
2020-Aug-14 02:53 315 16.1
2020-Aug-14 02:43 315 16.7
2020-Aug-14 02:34 315 16.7
2020-Aug-14 02:24 315 0 16.7
2020-Aug-14 02:14 315 0 17.2
2020-Aug-14 02:04 315 0 17.2
2020-Aug-14 01:54 315 0 17.2
2020-Aug-14 01:45 315 0 17.2
2020-Aug-14 01:35 315 0 17.2
2020-Aug-14 01:25 315 0 17.8
2020-Aug-14 01:15 315 0 17.8
2020-Aug-14 01:06 315 0 17.8
2020-Aug-14 00:56 315 17.8
2020-Aug-14 00:47 315 0 17.8
2020-Aug-14 00:38 315 17.8
2020-Aug-14 00:28 315 0 17.8
2020-Aug-14 00:19 315 0 17.8
2020-Aug-14 00:09 315 0 17.8
2020-Aug-14 00:00 315 18.3
2020-Aug-13 23:03 315 0 18.9
2020-Aug-13 22:53 315 0 18.9
2020-Aug-13 22:43 315 0 18.9
2020-Aug-13 22:34 315 19.4
2020-Aug-13 22:25 315 19.4
2020-Aug-13 22:15 360 20.0
2020-Aug-13 22:05 270 20.0
2020-Aug-13 21:56 270 19.4
2020-Aug-13 21:46 337 18.9
2020-Aug-13 21:37 045 18.9
2020-Aug-13 21:27 343 18.9
2020-Aug-13 21:17 022 0 18.9
2020-Aug-13 21:08 270 18.9
2020-Aug-13 20:59 030 0 18.3
2020-Aug-13 20:49 360 0 18.3
2020-Aug-13 20:39 360 18.3
2020-Aug-13 20:30 077 0 17.8
2020-Aug-13 20:20 336 0 17.8
2020-Aug-13 20:10 022 0 17.8
2020-Aug-13 20:00 022 0 17.8